Tracking 19415 objects as of 15-Dec-2018
HD Live streaming from Space Station
objects crossing your sky now

LEMUR 2 CHANUSIAK

Track LEMUR 2 CHANUSIAK now!
10-day predictions
LEMUR 2 CHANUSIAK is classified as:


NORAD ID: 43697
Int'l Code: 2018-088H
Perigee: 499.3 km
Apogee: 523.8 km
Inclination: 85.0 °
Period: 94.7 minutes
Semi major axis: 6882 km
RCS: Unknown
Launch date: November 11, 2018
Source: United States (US)
Launch site: Rocket Lab Launch Complex (RLLC)
aabbcc
Your satellite tracking list
Your tracking list is empty




NASA's NSSDC Master Catalog

Two Line Element Set (TLE):
1 43697U 18088H   18348.55702928  .00001679  00000-0  74814-4 0  9997
2 43697  85.0394  80.9724 0017848 145.1144 215.1271 15.20473873  5080
Source of the keplerian elements: AFSPC